Time,TemperatureF,DewpointF,PressureIn,WindDirection,WindDirectionDegrees,WindSpeedMPH,WindSpeedGustMPH,Humidity,HourlyPrecipIn,Conditions,Clouds,dailyrainin,SoftwareType,DateUTC
2013-06-17 12:52:00,85.6,47.9,29.26,NNW,345,0.0,0.0,27,0.00,,,0.00,VWS V14.01,2013-06-17 16:52:00,
2013-06-17 12:57:00,84.7,47.1,29.26,NNW,330,0.0,0.0,27,0.00,,,0.00,VWS V14.01,2013-06-17 16:57:00,
2013-06-17 13:03:00,83.8,46.3,29.26,South,175,0.0,0.0,27,0.00,,,0.00,VWS V14.01,2013-06-17 17:03:00,
2013-06-17 13:08:00,83.7,48.1,29.26,ESE,114,2.2,3.1,29,0.00,,,0.00,VWS V14.01,2013-06-17 17:08:00,
2013-06-17 13:13:00,84.6,48.8,29.26,East,98,0.0,3.6,29,0.00,,,0.00,VWS V14.01,2013-06-17 17:13:00,
2013-06-17 13:18:00,85.5,49.6,29.26,North,350,0.0,3.6,29,0.00,,,0.00,VWS V14.01,2013-06-17 17:18:00,
2013-06-17 13:23:00,84.7,44.0,29.26,WNW,295,2.7,2.7,24,0.00,,,0.00,VWS V14.01,2013-06-17 17:23:00,
2013-06-17 13:28:00,85.1,46.4,29.26,ENE,69,0.0,2.2,26,0.00,,,0.00,VWS V14.01,2013-06-17 17:28:00,
2013-06-17 13:33:00,86.2,49.3,29.23,NW,319,0.0,2.7,28,0.00,,,0.00,VWS V14.01,2013-06-17 17:33:00,
2013-06-17 13:38:00,86.0,48.2,29.23,WNW,302,3.6,3.6,27,0.00,,,0.00,VWS V14.01,2013-06-17 17:38:00,
2013-06-17 13:43:00,86.0,45.0,29.23,NNW,345,0.0,0.0,24,0.00,,,0.00,VWS V14.01,2013-06-17 17:43:00,
2013-06-17 13:48:00,85.5,46.7,29.23,WNW,286,3.1,3.1,26,0.00,,,0.00,VWS V14.01,2013-06-17 17:48:00,
2013-06-17 13:53:00,85.8,48.0,29.23,ESE,115,0.0,0.0,27,0.00,,,0.00,VWS V14.01,2013-06-17 17:53:00,
2013-06-17 13:59:00,85.6,46.8,29.23,WNW,292,3.1,3.6,26,0.00,,,0.00,VWS V14.01,2013-06-17 17:59:00,
2013-06-17 14:04:00,85.8,48.0,29.23,SW,221,2.7,3.1,27,0.00,,,0.00,VWS V14.01,2013-06-17 18:04:00,
2013-06-17 14:09:00,86.2,44.1,29.23,North,7,0.0,0.0,23,0.00,,,0.00,VWS V14.01,2013-06-17 18:09:00,
2013-06-17 14:14:00,86.0,42.8,29.23,NNW,333,2.7,3.6,22,0.00,,,0.00,VWS V14.01,2013-06-17 18:14:00,
2013-06-17 14:19:00,86.5,45.5,29.23,WNW,292,0.0,0.0,24,0.00,,,0.00,VWS V14.01,2013-06-17 18:19:00,
2013-06-17 14:24:00,86.2,44.1,29.23,NNE,28,0.0,0.0,23,0.00,,,0.00,VWS V14.01,2013-06-17 18:24:00,
2013-06-17 14:29:00,85.6,44.7,29.23,North,350,0.0,0.0,24,0.00,,,0.00,VWS V14.01,2013-06-17 18:29:00,
2013-06-17 14:34:00,84.9,44.1,29.23,East,79,0.0,0.0,24,0.00,,,0.00,VWS V14.01,2013-06-17 18:34:00,
2013-06-17 14:39:00,84.0,45.5,29.23,South,179,2.7,4.5,26,0.00,,,0.00,VWS V14.01,2013-06-17 18:39:00,
2013-06-17 14:44:00,82.8,47.3,29.23,NNW,328,2.2,3.1,29,0.00,,,0.00,VWS V14.01,2013-06-17 18:44:00,
2013-06-17 14:49:00,82.0,47.6,29.23,North,353,0.0,0.0,30,0.00,,,0.00,VWS V14.01,2013-06-17 18:49:00,
2013-06-17 14:54:00,81.9,48.3,29.23,NNW,332,0.0,0.0,31,0.00,,,0.00,VWS V14.01,2013-06-17 18:54:00,
2013-06-17 14:59:00,82.4,49.6,29.23,NNW,336,0.0,0.0,32,0.00,,,0.00,VWS V14.01,2013-06-17 18:59:00,
2013-06-17 15:04:00,82.8,50.8,29.23,SE,137,2.7,3.6,33,0.00,,,0.00,VWS V14.01,2013-06-17 19:04:00,
2013-06-17 15:09:00,82.4,50.4,29.23,West,266,0.0,0.0,33,0.00,,,0.00,VWS V14.01,2013-06-17 19:09:00,
2013-06-17 15:14:00,81.9,50.8,29.23,WSW,249,0.0,0.0,34,0.00,,,0.00,VWS V14.01,2013-06-17 19:14:00,
2013-06-17 15:19:00,81.7,51.4,29.23,WSW,249,0.0,0.0,35,0.00,,,0.00,VWS V14.01,2013-06-17 19:19:00,
2013-06-17 15:24:00,81.3,51.8,29.23,SW,229,0.0,0.0,36,0.00,,,0.00,VWS V14.01,2013-06-17 19:24:00,
2013-06-17 15:29:00,81.5,52.7,29.23,ESE,103,0.0,0.0,37,0.00,,,0.00,VWS V14.01,2013-06-17 19:29:00,
2013-06-17 15:34:00,82.4,53.5,29.23,NNW,346,2.7,2.7,37,0.00,,,0.00,VWS V14.01,2013-06-17 19:34:00,
2013-06-17 15:39:00,82.6,52.2,29.23,NNW,346,0.0,0.0,35,0.00,,,0.00,VWS V14.01,2013-06-17 19:39:00,
2013-06-17 15:44:00,82.9,51.7,29.23,WSW,251,0.0,0.0,34,0.00,,,0.00,VWS V14.01,2013-06-17 19:44:00,
2013-06-17 15:49:00,83.3,51.2,29.23,SSW,212,0.0,0.0,33,0.00,,,0.00,VWS V14.01,2013-06-17 19:49:00,
2013-06-17 15:54:00,83.3,51.2,29.23,South,186,0.0,0.0,33,0.00,,,0.00,VWS V14.01,2013-06-17 19:54:00,
2013-06-17 15:59:00,83.3,51.2,29.23,South,186,0.0,0.0,33,0.00,,,0.00,VWS V14.01,2013-06-17 19:59:00,
2013-06-17 16:04:00,83.3,50.4,29.21,SW,217,0.0,0.0,32,0.00,,,0.00,VWS V14.01,2013-06-17 20:04:00,
2013-06-17 16:09:00,83.5,49.7,29.21,SW,217,0.0,0.0,31,0.00,,,0.00,VWS V14.01,2013-06-17 20:09:00,
2013-06-17 16:15:00,84.0,49.3,29.21,SW,217,0.0,0.0,30,0.00,,,0.00,VWS V14.01,2013-06-17 20:15:00,
2013-06-17 16:20:00,84.6,48.8,29.21,SW,232,0.0,0.0,29,0.00,,,0.00,VWS V14.01,2013-06-17 20:20:00,
2013-06-17 16:25:00,84.9,49.2,29.21,WSW,244,0.0,0.0,29,0.00,,,0.00,VWS V14.01,2013-06-17 20:25:00,
2013-06-17 16:30:00,85.1,49.3,29.21,WSW,244,0.0,0.0,29,0.00,,,0.00,VWS V14.01,2013-06-17 20:30:00,
2013-06-17 16:35:00,85.6,47.9,29.21,NNW,342,0.0,0.0,27,0.00,,,0.00,VWS V14.01,2013-06-17 20:35:00,
2013-06-17 16:40:00,85.8,46.0,29.21,NNW,342,0.0,0.0,25,0.00,,,0.00,VWS V14.01,2013-06-17 20:40:00,
2013-06-17 16:45:00,85.8,43.8,29.21,SW,223,0.0,0.0,23,0.00,,,0.00,VWS V14.01,2013-06-17 20:45:00,
2013-06-17 16:50:00,85.8,43.8,29.21,NW,319,0.0,0.0,23,0.00,,,0.00,VWS V14.01,2013-06-17 20:50:00,
2013-06-17 16:55:00,85.8,42.6,29.21,NNW,337,0.0,0.0,22,0.00,,,0.00,VWS V14.01,2013-06-17 20:55:00,
2013-06-17 17:00:00,85.6,41.3,29.21,NW,322,0.0,0.0,21,0.00,,,0.00,VWS V14.01,2013-06-17 21:00:00,
2013-06-17 17:05:00,85.6,41.3,29.21,NNE,22,0.0,2.7,21,0.00,,,0.00,VWS V14.01,2013-06-17 21:05:00,
2013-06-17 17:10:00,85.8,42.6,29.21,NW,322,0.0,0.0,22,0.00,,,0.00,VWS V14.01,2013-06-17 21:10:00,
2013-06-17 17:15:00,86.0,41.6,29.21,NW,326,3.1,3.6,21,0.00,,,0.00,VWS V14.01,2013-06-17 21:15:00,
2013-06-17 17:20:00,86.2,41.7,29.21,NNW,337,0.0,0.0,21,0.00,,,0.00,VWS V14.01,2013-06-17 21:20:00,
2013-06-17 17:25:00,86.2,42.9,29.21,West,281,3.1,3.6,22,0.00,,,0.00,VWS V14.01,2013-06-17 21:25:00,
2013-06-17 17:30:00,86.0,41.6,29.21,NNW,346,0.0,0.0,21,0.00,,,0.00,VWS V14.01,2013-06-17 21:30:00,
2013-06-17 17:35:00,86.2,41.7,29.21,North,357,2.2,2.2,21,0.00,,,0.00,VWS V14.01,2013-06-17 21:35:00,
2013-06-17 17:41:00,86.2,41.7,29.21,North,350,0.0,0.0,21,0.00,,,0.00,VWS V14.01,2013-06-17 21:41:00,
2013-06-17 17:46:00,86.2,41.7,29.21,NNW,348,0.0,0.0,21,0.00,,,0.00,VWS V14.01,2013-06-17 21:46:00,
2013-06-17 17:51:00,86.2,41.7,29.21,North,350,0.0,0.0,21,0.00,,,0.00,VWS V14.01,2013-06-17 21:51:00,
2013-06-17 17:56:00,86.2,41.7,29.21,NNW,327,0.0,0.0,21,0.00,,,0.00,VWS V14.01,2013-06-17 21:56:00,
2013-06-17 18:01:00,86.5,42.0,29.21,NNW,327,0.0,0.0,21,0.00,,,0.00,VWS V14.01,2013-06-17 22:01:00,
2013-06-17 18:06:00,86.7,42.2,29.21,NNW,345,0.0,0.0,21,0.00,,,0.00,VWS V14.01,2013-06-17 22:06:00,
2013-06-17 18:11:00,86.7,42.2,29.21,NNW,332,0.0,0.0,21,0.00,,,0.00,VWS V14.01,2013-06-17 22:11:00,
2013-06-17 18:16:00,86.5,43.2,29.21,NW,318,0.0,0.0,22,0.00,,,0.00,VWS V14.01,2013-06-17 22:16:00,
2013-06-17 18:21:00,86.9,43.5,29.21,NW,324,0.0,0.0,22,0.00,,,0.00,VWS V14.01,2013-06-17 22:21:00,
2013-06-17 18:27:00,86.5,43.2,29.21,NW,311,0.0,0.0,22,0.00,,,0.00,VWS V14.01,2013-06-17 22:27:00,
2013-06-17 18:32:00,86.5,42.0,29.21,North,353,0.0,0.0,21,0.00,,,0.00,VWS V14.01,2013-06-17 22:32:00,
2013-06-17 18:37:00,86.4,41.9,29.21,North,353,0.0,0.0,21,0.00,,,0.00,VWS V14.01,2013-06-17 22:37:00,
2013-06-17 18:42:00,86.2,41.7,29.21,North,0,0.0,2.7,21,0.00,,,0.00,VWS V14.01,2013-06-17 22:42:00,
2013-06-17 18:47:00,85.8,41.4,29.21,NNW,331,0.0,0.0,21,0.00,,,0.00,VWS V14.01,2013-06-17 22:47:00,
2013-06-17 18:53:00,85.8,41.4,29.21,North,350,0.0,0.0,21,0.00,,,0.00,VWS V14.01,2013-06-17 22:53:00,
2013-06-17 18:58:00,86.2,41.7,29.21,North,357,0.0,0.0,21,0.00,,,0.00,VWS V14.01,2013-06-17 22:58:00,
2013-06-17 19:03:00,86.5,40.8,29.21,North,353,0.0,0.0,20,0.00,,,0.00,VWS V14.01,2013-06-17 23:03:00,
2013-06-17 19:08:00,86.9,41.0,29.21,North,353,0.0,0.0,20,0.00,,,0.00,VWS V14.01,2013-06-17 23:08:00,
2013-06-17 19:13:00,87.1,41.2,29.21,North,353,0.0,0.0,20,0.00,,,0.00,VWS V14.01,2013-06-17 23:13:00,
2013-06-17 19:18:00,87.1,41.2,29.21,NNW,327,0.0,0.0,20,0.00,,,0.00,VWS V14.01,2013-06-17 23:18:00,
2013-06-17 19:23:00,87.1,41.2,29.21,NNW,327,0.0,0.0,20,0.00,,,0.00,VWS V14.01,2013-06-17 23:23:00,
2013-06-17 19:28:00,87.1,41.2,29.21,NNW,327,0.0,0.0,20,0.00,,,0.00,VWS V14.01,2013-06-17 23:28:00,
2013-06-17 19:33:00,86.5,40.8,29.21,NNW,339,0.0,0.0,20,0.00,,,0.00,VWS V14.01,2013-06-17 23:33:00,
2013-06-17 19:38:00,86.2,40.5,29.21,NNW,339,0.0,0.0,20,0.00,,,0.00,VWS V14.01,2013-06-17 23:38:00,
2013-06-17 19:43:00,85.8,40.2,29.21,NNW,339,0.0,0.0,20,0.00,,,0.00,VWS V14.01,2013-06-17 23:43:00,
2013-06-17 19:48:00,85.5,41.1,29.21,NNW,339,0.0,0.0,21,0.00,,,0.00,VWS V14.01,2013-06-17 23:48:00,
2013-06-17 19:53:00,85.1,40.8,29.21,NNW,339,0.0,0.0,21,0.00,,,0.00,VWS V14.01,2013-06-17 23:53:00,
2013-06-17 19:58:00,84.6,41.6,29.21,NNW,339,0.0,0.0,22,0.00,,,0.00,VWS V14.01,2013-06-17 23:58:00,
2013-06-17 20:03:00,84.0,42.3,29.21,NNW,339,0.0,0.0,23,0.00,,,0.00,VWS V14.01,2013-06-18 00:03:00,
2013-06-17 20:08:00,83.7,42.0,29.21,NNW,339,0.0,0.0,23,0.00,,,0.00,VWS V14.01,2013-06-18 00:08:00,
2013-06-17 20:13:00,83.3,42.8,29.21,NNW,339,0.0,0.0,24,0.00,,,0.00,VWS V14.01,2013-06-18 00:13:00,
2013-06-17 20:18:00,82.8,44.4,29.21,NNW,339,0.0,0.0,26,0.00,,,0.00,VWS V14.01,2013-06-18 00:18:00,
2013-06-17 20:23:00,82.2,44.9,29.21,NNW,339,0.0,0.0,27,0.00,,,0.00,VWS V14.01,2013-06-18 00:23:00,
2013-06-17 20:28:00,81.7,46.4,29.21,NNW,339,0.0,0.0,29,0.00,,,0.00,VWS V14.01,2013-06-18 00:28:00,
2013-06-17 20:33:00,81.1,45.9,29.21,NNW,339,0.0,0.0,29,0.00,,,0.00,VWS V14.01,2013-06-18 00:33:00,
2013-06-17 20:38:00,80.8,46.5,29.21,NNW,339,0.0,0.0,30,0.00,,,0.00,VWS V14.01,2013-06-18 00:38:00,
2013-06-17 20:43:00,80.4,46.2,29.21,NNW,339,0.0,0.0,30,0.00,,,0.00,VWS V14.01,2013-06-18 00:43:00,
2013-06-17 20:48:00,80.2,46.0,29.21,NNW,339,0.0,0.0,30,0.00,,,0.00,VWS V14.01,2013-06-18 00:48:00,
2013-06-17 20:53:00,79.9,46.6,29.21,NNW,339,0.0,0.0,31,0.00,,,0.00,VWS V14.01,2013-06-18 00:53:00,
2013-06-17 20:58:00,79.5,46.3,29.21,NNW,339,0.0,0.0,31,0.00,,,0.00,VWS V14.01,2013-06-18 00:58:00,
2013-06-17 21:03:00,79.2,46.0,29.23,ESE,108,0.0,0.0,31,0.00,,,0.00,VWS V14.01,2013-06-18 01:03:00,
2013-06-17 21:09:00,78.8,45.6,29.23,East,101,0.0,3.1,31,0.00,,,0.00,VWS V14.01,2013-06-18 01:09:00,
2013-06-17 21:14:00,78.4,46.2,29.23,ESE,105,0.0,0.0,32,0.00,,,0.00,VWS V14.01,2013-06-18 01:14:00,
2013-06-17 21:19:00,78.1,45.8,29.23,ESE,105,0.0,0.0,32,0.00,,,0.00,VWS V14.01,2013-06-18 01:19:00,
2013-06-17 21:24:00,77.9,45.7,29.23,ESE,105,0.0,0.0,32,0.00,,,0.00,VWS V14.01,2013-06-18 01:24:00,
2013-06-17 21:29:00,77.7,45.5,29.23,ESE,105,0.0,0.0,32,0.00,,,0.00,VWS V14.01,2013-06-18 01:29:00,
2013-06-17 21:34:00,77.5,45.4,29.23,East,95,0.0,0.0,32,0.00,,,0.00,VWS V14.01,2013-06-18 01:34:00,
2013-06-17 21:39:00,77.4,45.2,29.23,East,94,0.0,0.0,32,0.00,,,0.00,VWS V14.01,2013-06-18 01:39:00,
2013-06-17 21:44:00,77.2,45.9,29.23,East,94,0.0,0.0,33,0.00,,,0.00,VWS V14.01,2013-06-18 01:44:00,
2013-06-17 21:49:00,77.0,45.7,29.23,ENE,72,0.0,0.0,33,0.00,,,0.00,VWS V14.01,2013-06-18 01:49:00,
2013-06-17 21:54:00,77.0,45.7,29.23,ENE,72,0.0,0.0,33,0.00,,,0.00,VWS V14.01,2013-06-18 01:54:00,
2013-06-17 21:59:00,76.8,46.3,29.23,ENE,72,0.0,0.0,34,0.00,,,0.00,VWS V14.01,2013-06-18 01:59:00,
2013-06-17 22:04:00,76.6,46.2,29.23,ENE,72,0.0,0.0,34,0.00,,,0.00,VWS V14.01,2013-06-18 02:04:00,
2013-06-17 22:09:00,76.6,46.2,29.23,ENE,72,0.0,0.0,34,0.00,,,0.00,VWS V14.01,2013-06-18 02:09:00,
2013-06-17 22:14:00,76.5,46.8,29.23,ENE,72,0.0,0.0,35,0.00,,,0.00,VWS V14.01,2013-06-18 02:14:00,
2013-06-17 22:19:00,76.3,46.7,29.23,NNW,338,2.2,2.2,35,0.00,,,0.00,VWS V14.01,2013-06-18 02:19:00,
2013-06-17 22:24:00,76.3,46.7,29.23,NNW,339,0.0,0.0,35,0.00,,,0.00,VWS V14.01,2013-06-18 02:24:00,
2013-06-17 22:29:00,76.3,47.4,29.23,NNW,338,0.0,0.0,36,0.00,,,0.00,VWS V14.01,2013-06-18 02:29:00,
2013-06-17 22:34:00,76.1,47.2,29.23,NNW,345,0.0,0.0,36,0.00,,,0.00,VWS V14.01,2013-06-18 02:34:00,
2013-06-17 22:39:00,75.9,47.8,29.23,NNE,17,0.0,3.1,37,0.00,,,0.00,VWS V14.01,2013-06-18 02:39:00,
2013-06-17 22:45:00,75.7,47.7,29.23,NE,48,0.0,2.7,37,0.00,,,0.00,VWS V14.01,2013-06-18 02:45:00,
2013-06-17 22:50:00,75.7,48.4,29.23,East,83,0.0,0.0,38,0.00,,,0.00,VWS V14.01,2013-06-18 02:50:00,
2013-06-17 22:55:00,75.6,48.2,29.23,NE,52,0.0,0.0,38,0.00,,,0.00,VWS V14.01,2013-06-18 02:55:00,
2013-06-17 23:00:00,75.4,48.7,29.23,WNW,291,0.0,0.0,39,0.00,,,0.00,VWS V14.01,2013-06-18 03:00:00,
2013-06-17 23:05:00,75.4,48.7,29.23,East,92,0.0,0.0,39,0.00,,,0.00,VWS V14.01,2013-06-18 03:05:00,
2013-06-17 23:10:00,75.2,49.2,29.23,WNW,286,0.0,0.0,40,0.00,,,0.00,VWS V14.01,2013-06-18 03:10:00,
2013-06-17 23:15:00,75.2,49.2,29.23,WNW,299,0.0,0.0,40,0.00,,,0.00,VWS V14.01,2013-06-18 03:15:00,
2013-06-17 23:21:00,75.0,49.8,29.23,NNW,334,0.0,0.0,41,0.00,,,0.00,VWS V14.01,2013-06-18 03:21:00,
2013-06-17 23:26:00,74.8,49.6,29.23,NNW,337,0.0,0.0,41,0.00,,,0.00,VWS V14.01,2013-06-18 03:26:00,
2013-06-17 23:31:00,74.7,49.4,29.23,ENE,58,2.2,2.2,41,0.00,,,0.00,VWS V14.01,2013-06-18 03:31:00,
2013-06-17 23:38:00,74.5,49.9,29.23,NNW,327,0.0,0.0,42,0.00,,,0.00,VWS V14.01,2013-06-18 03:38:00,
2013-06-17 23:44:00,74.3,49.8,29.23,NNW,338,0.0,0.0,42,0.00,,,0.00,VWS V14.01,2013-06-18 03:44:00,
2013-06-17 23:49:00,74.3,49.8,29.23,North,357,2.2,2.2,42,0.00,,,0.00,VWS V14.01,2013-06-18 03:49:00,
2013-06-17 23:54:00,74.1,50.2,29.23,NNE,17,0.0,0.0,43,0.00,,,0.00,VWS V14.01,2013-06-18 03:54:00,
2013-06-17 23:59:00,74.1,50.2,29.23,SW,235,0.0,0.0,43,0.00,,,0.00,VWS V14.01,2013-06-18 03:59:00,